Regional Weather Roundup
Issued by NWS Memphis, TN

Home | Current Version | Previous Version | Text Only | Print | Product List | Glossary On
Versions: 1 2 3 4 5 6 7 8 9 10 11 12 13 14 15 16 17 18 19 20 21 22 23 24 25 26 27 28 29 30 31 32 33 34 35 36 37 38 39 40 41 42 43 44 45 46 47 48 49 50
000
ASUS44 KMEG 271310
RWRMEG
MEMPHIS CWA HOURLY WEATHER ROUNDUP
NATIONAL WEATHER SERVICE MEMPHIS TN
800 AM CDT WED AUG 27 2014

...WEST TENNESSEE...

CITY           SKY/WX    TMP DP  RH WIND       PRES   REMARKS
MEMPHIS INTL   MOSUNNY   80  68  66 E3        30.08S
NWS MEMPHIS      N/A     76 N/A N/A MISG        N/A
JACKSON        SUNNY     73  70  90 CALM      30.10S
LEXINGTON      CLOUDY    70  70 100 CALM      30.10S VSB 0
SAVANNAH       SUNNY     70  70 100 CALM      30.11R
DYERSBURG      SUNNY     73  64  73 CALM      30.10S
UNION CITY     CLOUDY    72  72 100 CALM      30.09R VSB 1/2
PARIS          SUNNY     75  72  88 CALM      30.10F
HUNTINGDON     PTSUNNY   74  72  93 CALM      30.10S


...EASTERN ARKANSAS...

CITY           SKY/WX    TMP DP  RH WIND       PRES   REMARKS
JONESBORO      SUNNY     76  72  87 E5        30.08R
WEST MEMPHIS   SUNNY     78  73  84 CALM      30.07S
BATESVILLE     SUNNY     73  72  94 CALM      30.09S
NEWPORT        SUNNY     77  73  87 CALM      30.09R
WALNUT RIDGE   SUNNY     73  66  78 E3        30.08R
BLYTHEVILLE    SUNNY     76  74  93 CALM      30.09S
SEARCY         MOSUNNY   78  75  90 CALM      30.09R
STUTTGART      MOSUNNY   77  70  78 E3        30.08S
PINE BLUFF     MOSUNNY   74  72  93 N3        30.07R
MONTICELLO     SUNNY     73  68  84 NE3       30.07R


...NORTH MISSISSIPPI...

CITY           SKY/WX    TMP DP  RH WIND       PRES   REMARKS
TUPELO         SUNNY     72  68  87 NE3       30.09R
OLIVE BRANCH   MOSUNNY   73  73 100 CALM      30.09S
CLARKSDALE     SUNNY     75  72  88 CALM      30.08S
CORINTH        MOSUNNY   70  68  94 CALM      30.09S FOG
GRENADA        MOSUNNY   73  68  83 E5        30.07S
GREENWOOD      MOSUNNY   71  67  87 CALM      30.06S
COLUMBUS       SUNNY     71  67  87 CALM      30.08S
STARKVILLE     FAIR      70  66  88 CALM      30.08S
GOLDEN TRIANGL SUNNY     72  64  78 CALM      30.09R


...SOUTHEAST MISSOURI...

CITY           SKY/WX    TMP DP  RH WIND       PRES   REMARKS
WEST PLAINS    SUNNY     74  69  85 CALM      30.14R
POPLAR BLUFF   SUNNY     77  70  79 CALM      30.08R
CAPE GIRARDEAU SUNNY     76  74  93 CALM      30.09R FOG


...NORTHWEST ALABAMA...

CITY           SKY/WX    TMP DP  RH WIND       PRES   REMARKS
MUSCLE SHOALS  PTSUNNY   70  66  88 CALM      30.12S FOG


...MIDDLE TENNESSEE...

CITY           SKY/WX    TMP DP  RH WIND       PRES   REMARKS
NASHVILLE      MOSUNNY   75  70  84 CALM      30.11S
CLARKSVILLE    SUNNY     75  71  87 CALM      30.10R
DICKSON        SUNNY     73  70  88 CALM      30.12R
COLUMBIA         N/A     72  72 100 CALM      30.10S
LEWISBURG      SUNNY     70  66  86 CALM      30.11S


...WESTERN KENTUCKY...

CITY           SKY/WX    TMP DP  RH WIND       PRES   REMARKS
PADUCAH        SUNNY     80  75  84 CALM      30.08S HAZE
FORT CAMPBELL  SUNNY     76  76 100 SW3       30.10S


...CENTRAL ARKANSAS...

CITY           SKY/WX    TMP DP  RH WIND       PRES   REMARKS
LITTLE ROCK    PTSUNNY   79  74  84 S3        30.08R


SKY/WX REPORTED AS FAIR MEANS FEW OR NO CLOUDS BELOW
12 THOUSAND FEET.




USA.gov is the U.S. government's official web portal to all federal, state and local government web resources and services.